Location: Berlin
(38.3226°N, 75.2177°W)
Time: 22:51:12
(UTC+00:00)

Cosmos 1892 Rocket - Pass Details

Date: 26 October 2020
Orbit: 607 x 632 km, 82.5° (Epoch: 25 November)

Event Time Altitude Azimuth Distance (km) Brightness Sun altitude
Rises 09:46:42 0° 175° (S) 2,850 7.0 -19.1°
Reaches altitude 10° 09:48:55 10° 171° (S) 1,952 6.2 -18.7°
Maximum altitude 09:53:08 55° 94° (E) 735 4.3 -17.9°
Drops below altitude 10° 09:57:25 10° 17° (NNE) 1,978 6.3 -17.0°
Sets 09:59:41 0° 13° (NNE) 2,891 7.1 -16.6°
